This is the latest recevied weather packets stored in our database for station/object SV8FES. If no packets are shown the sender has not sent any weather packets the latest 10 day(s).
| Time | Temp. | Humidity | Pressure | Rain* | Wind** | Luminosity | Snow |
|---|---|---|---|---|---|---|---|
| 1787674983 | 27.78° C | 66% | 1012.3 hPa | 0 mm | - | 47 W/m² | - |
| 1787674924 | 27.78° C | 66% | 1012.4 hPa | 0 mm | - | 53 W/m² | - |
| 1787674865 | 27.78° C | 65% | 1012.3 hPa | 0 mm | - | 54 W/m² | - |
| 1787674805 | 27.78° C | 65% | 1012.3 hPa | 0 mm | - | 56 W/m² | - |
| 1787674747 | 27.78° C | 65% | 1012.3 hPa | 0 mm | - | 58 W/m² | - |
| 1787674686 | 27.78° C | 65% | 1012.4 hPa | 0 mm | - | 62 W/m² | - |
| 1787674623 | 27.78° C | 65% | 1012.3 hPa | 0 mm | - | 63 W/m² | - |
| 1787674562 | 28.33° C | 65% | 1012.4 hPa | 0 mm | - | 69 W/m² | - |
| 1787674503 | 28.33° C | 65% | 1012.3 hPa | 0 mm | - | 70 W/m² | - |
| 1787674443 | 28.33° C | 64% | 1012.3 hPa | 0 mm | - | 72 W/m² | - |
| 1787674382 | 28.33° C | 64% | 1012.2 hPa | 0 mm | - | 77 W/m² | - |
| 1787674325 | 28.33° C | 64% | 1012.3 hPa | 0 mm | - | 77 W/m² | - |
| 1787674262 | 28.33° C | 64% | 1012.3 hPa | 0 mm | - | 83 W/m² | - |
| 1787674206 | 28.33° C | 64% | 1012.2 hPa | 0 mm | - | 84 W/m² | - |
| 1787674144 | 28.33° C | 64% | 1012.1 hPa | 0 mm | - | 88 W/m² | - |
| 1787674084 | 28.33° C | 63% | 1012.1 hPa | 0 mm | - | 90 W/m² | - |
| 1787674023 | 28.33° C | 63% | 1012.2 hPa | 0 mm | - | 93 W/m² | - |
| 1787673963 | 28.33° C | 63% | 1012.2 hPa | 0 mm | - | 95 W/m² | - |
| 1787673903 | 28.33° C | 63% | 1012.2 hPa | 0 mm | - | 98 W/m² | - |
| 1787673844 | 28.33° C | 63% | 1012.1 hPa | 0 mm | - | 104 W/m² | - |
| 1787673782 | 28.33° C | 63% | 1012.1 hPa | 0 mm | - | 105 W/m² | - |
| 1787673724 | 28.33° C | 63% | 1012.1 hPa | 0 mm | - | 107 W/m² | - |
| 1787673665 | 28.33° C | 63% | 1012.3 hPa | 0 mm | - | 111 W/m² | - |
| 1787673604 | 28.33° C | 63% | 1012.2 hPa | 0 mm | - | 114 W/m² | - |
| 1787673543 | 28.33° C | 63% | 1012.1 hPa | 0 mm | - | 120 W/m² | - |
* Rain latest hour (hover to see other rain measurements)
** Current wind speed in m/s (hover to see current wind gust speed)